When you browse on this site, cookies collect data to enhance your experience and personalize the content and advertising you see.
Visit our Privacy Policy to learn more. By continuing to use the site, you agree to this use of cookies and data.
  • In Hungary
  • List of Countries
  • For 7 days
  • Water Temperature
  • Satellite Maps
  • Weather Map
  • News
  • Weather Widgets
  • user-avatar
    Login

    Hourly Weather Laskow

    Today, 17 January, Thursday

    Time Temperature Precipitation Wind Pressure Humidity
    00:00 -1°C° 0 mm 4 mps 737 mmHg 95%
    01:00 -1°C° 0 mm 4 mps 737 mmHg 94%
    02:00 -1°C° 0 mm 5 mps 737 mmHg 92%
    03:00 -2°C° 0 mm 4 mps 737 mmHg 91%
    04:00 -2°C° 0 mm 4 mps 737 mmHg 90%
    05:00 -2°C° 0 mm 4 mps 736 mmHg 89%
    06:00 -2°C° 0 mm 5 mps 736 mmHg 87%
    07:00 -1°C° 0 mm 5 mps 736 mmHg 85%
    08:00 -2°C° 0 mm 6 mps 735 mmHg 83%
    09:00 -2°C° 0 mm 6 mps 735 mmHg 84%
    10:00 -1°C° 0 mm 7 mps 735 mmHg 84%
    11:00 -1°C° 0 mm 7 mps 735 mmHg 84%
    12:00 -1°C° 0 mm 7 mps 735 mmHg 86%
    13:00 -1°C° 0 mm 7 mps 735 mmHg 87%
    14:00 +1°C° 0 mm 6 mps 735 mmHg 88%
    15:00 -1°C° 0 mm 6 mps 735 mmHg 87%
    16:00 -1°C° 0 mm 6 mps 735 mmHg 85%
    17:00 -1°C° 0 mm 6 mps 735 mmHg 84%
    18:00 -1°C° 0 mm 6 mps 735 mmHg 84%
    19:00 -2°C° 0 mm 6 mps 736 mmHg 85%
    20:00 -1°C° 0 mm 5 mps 736 mmHg 85%
    21:00 -1°C° 0 mm 5 mps 736 mmHg 85%
    22:00 -1°C° 0 mm 5 mps 736 mmHg 86%
    23:00 -1°C° 0 mm 5 mps 736 mmHg 86%

    Tomorrow, 18 January, Friday

    Time Temperature Precipitation Wind Pressure Humidity
    00:00 -1°C° 0 mm 5 mps 735 mmHg 86%
    01:00 0°C° 0 mm 5 mps 735 mmHg 87%
    02:00 0°C° 0 mm 5 mps 735 mmHg 87%
    03:00 0°C° 0 mm 5 mps 735 mmHg 88%
    04:00 0°C° 0 mm 5 mps 735 mmHg 88%
    05:00 0°C° 0 mm 4 mps 735 mmHg 89%
    06:00 0°C° 0 mm 4 mps 735 mmHg 90%
    07:00 0°C° 0 mm 4 mps 735 mmHg 90%
    08:00 0°C° 0 mm 5 mps 735 mmHg 90%
    09:00 0°C° 0.3 mm 5 mps 736 mmHg 92%
    10:00 0°C° 0.3 mm 5 mps 736 mmHg 94%
    11:00 0°C° 0.3 mm 4 mps 737 mmHg 95%
    12:00 0°C° 0.1 mm 5 mps 737 mmHg 92%
    13:00 -1°C° 0.1 mm 5 mps 737 mmHg 88%
    14:00 -1°C° 0.1 mm 5 mps 738 mmHg 84%
    15:00 -1°C° 0 mm 5 mps 738 mmHg 82%
    16:00 -3°C° 0 mm 6 mps 738 mmHg 80%
    17:00 -3°C° 0 mm 6 mps 739 mmHg 78%
    18:00 -3°C° 0 mm 7 mps 740 mmHg 79%
    19:00 -3°C° 0 mm 7 mps 741 mmHg 81%
    20:00 -4°C° 0 mm 7 mps 741 mmHg 82%
    21:00 -4°C° 0 mm 6 mps 742 mmHg 83%
    22:00 -5°C° 0 mm 5 mps 743 mmHg 83%
    23:00 -5°C° 0 mm 4 mps 744 mmHg 84%

    Day after tomorrow, 19 January, Saturday

    Time Temperature Precipitation Wind Pressure Humidity
    00:00 -5°C° 0 mm 3 mps 744 mmHg 86%
    01:00 -5°C° 0 mm 3 mps 745 mmHg 88%
    02:00 -5°C° 0 mm 3 mps 745 mmHg 89%
    03:00 -5°C° 0 mm 3 mps 745 mmHg 89%
    04:00 -6°C° 0 mm 3 mps 746 mmHg 89%
    05:00 -6°C° 0 mm 3 mps 746 mmHg 89%
    06:00 -6°C° 0 mm 3 mps 746 mmHg 90%
    07:00 -6°C° 0 mm 3 mps 747 mmHg 91%
    08:00 -6°C° 0 mm 3 mps 747 mmHg 91%
    09:00 -6°C° 0 mm 3 mps 748 mmHg 90%
    10:00 -5°C° 0 mm 3 mps 748 mmHg 88%
    11:00 -4°C° 0 mm 3 mps 748 mmHg 87%
    12:00 -3°C° 0 mm 2 mps 748 mmHg 86%
    13:00 -3°C° 0 mm 2 mps 748 mmHg 84%
    14:00 -2°C° 0 mm 2 mps 748 mmHg 83%
    15:00 -3°C° 0 mm 2 mps 748 mmHg 84%
    16:00 -3°C° 0 mm 2 mps 748 mmHg 86%
    17:00 -2°C° 0 mm 1 mps 747 mmHg 88%
    18:00 -2°C° 0 mm 1 mps 748 mmHg 88%
    19:00 -2°C° 0 mm 1 mps 748 mmHg 89%
    20:00 -5°C° 0 mm 2 mps 748 mmHg 89%
    21:00 -5°C° 0 mm 2 mps 748 mmHg 89%
    22:00 -5°C° 0 mm 2 mps 748 mmHg 89%
    23:00 -5°C° 0 mm 2 mps 748 mmHg 89%

    20 January, Sunday

    Time Temperature Precipitation Wind Pressure Humidity
    00:00 -6°C° 0 mm 2 mps 748 mmHg 88%
    01:00 -6°C° 0 mm 2 mps 747 mmHg 87%
    02:00 -6°C° 0 mm 2 mps 747 mmHg 86%
    03:00 -6°C° 0 mm 2 mps 747 mmHg 86%
    04:00 -7°C° 0 mm 2 mps 746 mmHg 86%
    05:00 -7°C° 0 mm 2 mps 746 mmHg 86%
    06:00 -7°C° 0 mm 2 mps 746 mmHg 87%
    07:00 -8°C° 0 mm 3 mps 745 mmHg 87%
    08:00 -8°C° 0 mm 3 mps 745 mmHg 88%
    09:00 -7°C° 0 mm 3 mps 745 mmHg 87%
    10:00 -7°C° 0 mm 3 mps 745 mmHg 87%
    11:00 -6°C° 0 mm 3 mps 745 mmHg 87%
    12:00 -6°C° 0 mm 3 mps 745 mmHg 87%
    13:00 -6°C° 0 mm 3 mps 744 mmHg 87%
    14:00 -4°C° 0 mm 2 mps 744 mmHg 87%
    15:00 -5°C° 0 mm 2 mps 744 mmHg 88%
    16:00 -5°C° 0 mm 2 mps 744 mmHg 90%
    17:00 -5°C° 0 mm 2 mps 744 mmHg 92%
    18:00 -3°C° 0 mm 1 mps 744 mmHg 93%
    19:00 -3°C° 0 mm 1 mps 744 mmHg 94%
    20:00 -3°C° 0 mm 1 mps 744 mmHg 95%
    21:00 -4°C° 0 mm 1 mps 744 mmHg 95%
    22:00 -4°C° 0 mm 1 mps 745 mmHg 95%
    23:00 -4°C° 0 mm 1 mps 745 mmHg 95%

    21 January, Monday

    Time Temperature Precipitation Wind Pressure Humidity
    00:00 -6°C° 0 mm 1 mps 745 mmHg 95%
    01:00 -6°C° 0 mm 1 mps 745 mmHg 95%
    02:00 -7°C° 0 mm 2 mps 745 mmHg 95%
    03:00 -7°C° 0 mm 2 mps 745 mmHg 93%
    04:00 -7°C° 0 mm 2 mps 745 mmHg 92%
    05:00 -8°C° 0 mm 2 mps 745 mmHg 91%
    06:00 -8°C° 0 mm 2 mps 745 mmHg 90%
    07:00 -8°C° 0 mm 2 mps 746 mmHg 89%
    08:00 -8°C° 0 mm 2 mps 746 mmHg 88%
    09:00 -7°C° 0 mm 2 mps 746 mmHg 88%
    10:00 -7°C° 0 mm 3 mps 747 mmHg 88%
    11:00 -6°C° 0 mm 3 mps 747 mmHg 88%
    12:00 -6°C° 0 mm 3 mps 747 mmHg 87%
    13:00 -4°C° 0 mm 2 mps 747 mmHg 87%
    14:00 -4°C° 0 mm 2 mps 747 mmHg 86%
    15:00 -4°C° 0 mm 2 mps 747 mmHg 87%
    16:00 -2°C° 0 mm 1 mps 748 mmHg 87%
    17:00 -3°C° 0 mm 1 mps 748 mmHg 88%
    18:00 -3°C° 0 mm 1 mps 748 mmHg 87%
    19:00 -4°C° 0 mm 0 mps 748 mmHg 87%
    20:00 -5°C° 0 mm 0 mps 748 mmHg 87%
    21:00 -5°C° 0 mm 0 mps 748 mmHg 87%
    22:00 -4°C° 0 mm 1 mps 748 mmHg 87%
    23:00 -4°C° 0 mm 1 mps 748 mmHg 87%

    22 January, Tuesday

    Time Temperature Precipitation Wind Pressure Humidity
    00:00 -6°C° 0 mm 1 mps 748 mmHg 88%
    01:00 -6°C° 0 mm 1 mps 748 mmHg 89%
    02:00 -7°C° 0 mm 2 mps 748 mmHg 90%
    03:00 -7°C° 0 mm 2 mps 748 mmHg 90%
    04:00 -8°C° 0 mm 2 mps 747 mmHg 91%
    05:00 -8°C° 0 mm 2 mps 747 mmHg 92%
    06:00 -8°C° 0 mm 2 mps 747 mmHg 92%
    07:00 -8°C° 0 mm 2 mps 746 mmHg 93%
    08:00 -8°C° 0 mm 2 mps 746 mmHg 93%
    09:00 -9°C° 0 mm 3 mps 746 mmHg 92%
    10:00 -8°C° 0 mm 3 mps 746 mmHg 91%
    11:00 -8°C° 0 mm 3 mps 746 mmHg 89%
    12:00 -8°C° 0 mm 3 mps 745 mmHg 89%
    13:00 -7°C° 0 mm 3 mps 744 mmHg 89%
    14:00 -7°C° 0 mm 3 mps 744 mmHg 89%
    15:00 -7°C° 0 mm 3 mps 743 mmHg 89%
    16:00 -8°C° 0 mm 4 mps 743 mmHg 90%
    17:00 -9°C° 0 mm 4 mps 742 mmHg 90%
    18:00 -9°C° 0 mm 4 mps 742 mmHg 90%
    19:00 -9°C° 0 mm 4 mps 742 mmHg 89%
    20:00 -9°C° 0 mm 4 mps 741 mmHg 89%
    21:00 -9°C° 0 mm 4 mps 741 mmHg 89%
    22:00 -10°C° 0 mm 4 mps 741 mmHg 89%
    23:00 -10°C° 0 mm 4 mps 740 mmHg 88%
    Show more